DW4360 Weather Reports


time (UTC)temp
C
wind
direction
speed
KPH
gust
KPH
rain 1hr
cm
rain 24hr
cm
rain mn
cm
humidity
%
barometer
mb
20260831011315 22 317 0.0 0.0 0.00 0.00 0.00 50 1015.3
20260831010314 23 306 0.0 0.0 0.00 0.00 0.00 49 1015.3
20260831005313 23 306 8.0 0.0 0.00 0.00 0.00 48 1015.4
20260831004312 24 321 11.3 0.0 0.00 0.00 0.00 46 1015.5
20260831003311 25 317 3.2 0.0 0.00 0.00 0.00 44 1015.6
20260831002310 25 5 0.0 0.0 0.00 0.00 0.00 43 1015.7
20260831001309 25 323 4.8 0.0 0.00 0.00 0.00 42 1015.7
20260830235307 25 321 0.0 0.0 0.00 0.00 0.00 42 1015.8
20260830233305 24 326 0.0 0.0 0.00 0.00 0.00 46 1016.0
20260830232306 24 323 6.4 0.0 0.00 0.00 0.00 45 1016.2
20260830231303 24 323 6.4 0.0 0.00 0.00 0.00 46 1016.2
20260830230302 23 308 0.0 0.0 0.00 0.00 0.00 47 1016.3
20260830225305 23 299 6.4 0.0 0.00 0.00 0.00 48 1016.5
20260830224300 23 317 6.4 0.0 0.00 0.00 0.00 48 1016.7
20260830223259 23 317 0.0 0.0 0.00 0.00 0.00 47 1016.9
20260830222258 23 329 0.0 0.0 0.00 0.00 0.00 46 1017.1
20260830214254 24 88 0.0 0.0 0.00 0.00 0.00 43 1017.6
20260830213253 25 307 0.0 0.0 0.00 0.00 0.00 44 1017.8
20260830212252 25 319 6.4 0.0 0.00 0.00 0.00 44 1017.8
20260830211251 24 104 0.0 0.0 0.00 0.00 0.00 44 1017.9
20260830210250 24 319 0.0 0.0 0.00 0.00 0.00 46 1018.1
20260830205249 23 244 0.0 0.0 0.00 0.00 0.00 47 1018.1
20260830204248 23 328 0.0 0.0 0.00 0.00 0.00 48 1018.2
20260830203247 22 360 0.0 0.0 0.00 0.00 0.00 49 1018.4
20260830202246 22 331 0.0 0.0 0.00 0.00 0.00 50 1018.6
20260830195243 21 317 0.0 0.0 0.00 0.00 0.00 54 1018.8
20260830194242 21 318 1.6 0.0 0.00 0.00 0.00 53 1018.8
20260830193240 21 122 0.0 0.0 0.00 0.00 0.00 54 1018.9
20260830191238 20 319 0.0 0.0 0.00 0.00 0.00 55 1019.2
20260830185236 19 323 4.8 0.0 0.00 0.00 0.00 59 1019.4
20260830184235 18 113 0.0 0.0 0.00 0.00 0.00 58 1019.5
20260830183234 18 326 3.2 0.0 0.00 0.00 0.00 58 1019.5
20260830182233 18 321 0.0 0.0 0.00 0.00 0.00 62 1019.5
20260830181233 18 331 0.0 0.0 0.00 0.00 0.00 62 1019.6
20260830180232 19 338 0.0 0.0 0.00 0.00 0.00 60 1019.6
20260830175231 20 109 0.0 0.0 0.00 0.00 0.00 59 1019.5
20260830174229 20 59 0.0 0.0 0.00 0.00 0.00 61 1019.5
20260830172227 18 112 0.0 0.0 0.00 0.00 0.00 70 1019.5
20260830170225 16 319 0.0 0.0 0.00 0.00 0.00 77 1019.6
20260830165225 15 319 0.0 0.0 0.00 0.00 0.00 81 1019.5
20260830163222 14 319 0.0 0.0 0.00 0.00 0.00 84 1019.6
20260830162221 13 319 0.0 0.0 0.00 0.00 0.00 85 1019.7
20260830161220 13 318 0.0 0.0 0.00 0.00 0.00 86 1019.8
20260830160219 13 318 0.0 0.0 0.00 0.00 0.00 88 1019.9
20260830154217 12 318 0.0 0.0 0.00 0.00 0.00 89 1019.8
20260830152215 11 319 0.0 0.0 0.00 0.00 0.00 89 1020.0
20260830151214 11 318 0.0 0.0 0.00 0.00 0.00 89 1020.0
20260830150213 11 318 0.0 0.0 0.00 0.00 0.00 88 1020.1
20260830145212 11 318 0.0 0.0 0.00 0.00 0.00 88 1020.1
20260830144211 11 318 0.0 0.0 0.00 0.00 0.00 88 1020.0
20260830143210 11 318 0.0 0.0 0.00 0.00 0.00 88 1020.1
20260830142209 11 318 0.0 0.0 0.00 0.00 0.00 87 1020.0
20260830141208 11 318 0.0 0.0 0.00 0.00 0.00 87 1020.0
20260830140207 11 318 0.0 0.0 0.00 0.00 0.00 87 1020.0
20260830135206 11 318 0.0 0.0 0.00 0.00 0.00 87 1019.9
20260830134205 11 318 0.0 0.0 0.00 0.00 0.00 87 1019.8
20260830133204 11 318 0.0 0.0 0.00 0.00 0.00 88 1019.8
20260830132203 11 318 0.0 0.0 0.00 0.00 0.00 88 1019.9
20260830131202 11 318 0.0 0.0 0.00 0.00 0.00 88 1019.8
20260830130201 11 318 0.0 0.0 0.00 0.00 0.00 88 1019.7
20260830125200 11 318 0.0 0.0 0.00 0.00 0.00 88 1019.7
20260830124159 11 318 0.0 0.0 0.00 0.00 0.00 87 1019.6
20260830123158 11 318 0.0 0.0 0.00 0.00 0.00 87 1019.5
20260830122157 11 318 0.0 0.0 0.00 0.00 0.00 87 1019.5
20260830121156 11 318 0.0 0.0 0.00 0.00 0.00 87 1019.5
20260830120155 11 318 0.0 0.0 0.00 0.00 0.00 87 1019.4
20260830114153 11 318 0.0 0.0 0.00 0.00 0.00 86 1019.5
20260830113152 11 318 0.0 0.0 0.00 0.00 0.00 86 1019.5
20260830112151 11 318 0.0 0.0 0.00 0.00 0.00 86 1019.4
20260830111150 11 318 0.0 0.0 0.00 0.00 0.00 86 1019.3
20260830110149 11 318 0.0 0.0 0.00 0.00 0.00 86 1019.3
20260830105148 11 318 0.0 0.0 0.00 0.00 0.00 86 1019.3
20260830104147 11 318 0.0 0.0 0.00 0.00 0.00 86 1019.3
20260830103146 12 318 0.0 0.0 0.00 0.00 0.00 85 1019.3
20260830102145 12 318 0.0 0.0 0.00 0.00 0.00 86 1019.3
20260830101143 12 318 0.0 0.0 0.00 0.00 0.00 85 1019.2
20260830100143 12 318 0.0 0.0 0.00 0.00 0.00 85 1019.2
20260830095142 12 318 0.0 0.0 0.00 0.00 0.00 84 1019.2
20260830094141 12 318 0.0 0.0 0.00 0.00 0.00 84 1019.2
20260830092139 12 318 0.0 0.0 0.00 0.00 0.00 83 1019.2
20260830091137 12 318 0.0 0.0 0.00 0.00 0.00 82 1019.2
20260830090136 13 318 0.0 0.0 0.00 0.00 0.00 82 1019.2
20260830085135 13 318 0.0 0.0 0.00 0.00 0.00 82 1019.2
20260830084135 13 318 0.0 0.0 0.00 0.00 0.00 81 1019.3
20260830082133 13 318 0.0 0.0 0.00 0.00 0.00 80 1019.3
20260830080130 13 318 0.0 0.0 0.00 0.00 0.00 79 1019.3
20260830075129 14 318 0.0 0.0 0.00 0.00 0.00 77 1019.3
20260830074128 14 318 0.0 0.0 0.00 0.00 0.00 77 1019.3
20260830073128 14 318 0.0 0.0 0.00 0.00 0.00 76 1019.2
20260830072126 14 318 0.0 0.0 0.00 0.00 0.00 75 1019.3
20260830071125 15 318 0.0 0.0 0.00 0.00 0.00 75 1019.3
20260830070125 15 318 0.0 0.0 0.00 0.00 0.00 74 1019.2
20260830063121 15 318 0.0 0.0 0.00 0.00 0.00 71 1019.2
20260830062121 16 318 0.0 0.0 0.00 0.00 0.00 70 1019.2
20260830061119 16 318 0.0 0.0 0.00 0.00 0.00 70 1019.2
20260830060119 16 318 0.0 0.0 0.00 0.00 0.00 69 1019.2
20260830055117 16 318 0.0 0.0 0.00 0.00 0.00 68 1019.2
20260830054117 16 318 0.0 0.0 0.00 0.00 0.00 68 1019.2
20260830053116 16 318 0.0 0.0 0.00 0.00 0.00 67 1019.1
20260830052114 16 318 0.0 0.0 0.00 0.00 0.00 66 1019.0
20260830051113 17 323 0.0 0.0 0.00 0.00 0.00 65 1019.0
20260830050112 17 323 0.0 0.0 0.00 0.00 0.00 64 1018.9
20260830045111 17 323 0.0 0.0 0.00 0.00 0.00 64 1018.9
20260830044110 17 321 0.0 0.0 0.00 0.00 0.00 62 1018.8
20260830042108 17 323 0.0 0.0 0.00 0.00 0.00 60 1018.8
20260830041107 18 325 6.4 0.0 0.00 0.00 0.00 59 1018.6
20260830040106 18 320 0.0 0.0 0.00 0.00 0.00 58 1018.5
20260830035105 18 320 0.0 0.0 0.00 0.00 0.00 57 1018.3
20260830034104 18 320 0.0 0.0 0.00 0.00 0.00 56 1018.2
20260830033103 18 320 0.0 0.0 0.00 0.00 0.00 55 1018.1
20260830032102 18 318 0.0 0.0 0.00 0.00 0.00 54 1018.0
20260830030100 20 318 11.3 0.0 0.00 0.00 0.00 51 1017.9
20260830025059 20 325 8.0 0.0 0.00 0.00 0.00 50 1017.8
20260830024058 20 333 1.6 0.0 0.00 0.00 0.00 49 1017.7
20260830023057 21 325 9.7 0.0 0.00 0.00 0.00 47 1017.6
20260830022056 21 309 3.2 0.0 0.00 0.00 0.00 46 1017.6
20260830021055 21 325 3.2 0.0 0.00 0.00 0.00 46 1017.4
20260830020054 21 332 1.6 0.0 0.00 0.00 0.00 46 1017.4
20260830014052 22 316 0.0 0.0 0.00 0.00 0.00 47 1017.3
20260830013051 22 323 1.6 0.0 0.00 0.00 0.00 46 1017.3
20260830012050 22 323 0.0 0.0 0.00 0.00 0.00 45 1017.2